Погода в Мон-Сен-Мишеле

Франция     48°37′42″N   1°31′48″W
темп.,
°C
ветер,
м/с
пор.,
м/с
влажн.,
%
обл.,
%
осадки,
мм/ч
давл.,
гПа
погр.,
м
28 января, пт
пт2801:00+9ссв229219 0.1 103522
04:00+6в22956 0.0 103619
07:00+5вюв229721 0.0 103624
10:00+7юв229756 0.0 103888
13:00+9ююз229254 0.0 1038250
16:00+9зсз358660 0.0 1037342
19:00+7з339266 0.0 103740
22:00+9юз3490100 0.0 103776
29 января, сб
сб2901:00+8юз3595100 0.0 1036105
04:00+9зюз379670 0.0 1035173
07:00+8з4109737 0.1 1035227
10:00+9з5109618 0.0 1036328
13:00+10з712891 0.0 1036466
16:00+10з713885 0.0 1034451
19:00+9зсз6129370 0.0 1035387
22:00+9з4897100 0.1 1035253
30 января, вс
вс3001:00+9сз479778 0.2 1035269
04:00+6св349338 0.0 103482
07:00+4св33915 0.0 103455
10:00+5всв23885 0.0 1035110
13:00+8ссв11705 0.0 1033471
16:00+8з22705 0.0 1031382
19:00+5сз22835 0.0 103058
22:00+5зюз358460 0.0 1028108
31 января, пн
пн3101:00+8зюз61494100 0.1 1025512
04:00+8сз111582100 0.3 1026899
07:00+7ссз9137672 0.3 1027913
10:00+7сз9137597 0.1 10281065
13:00+7сз91373100 0.2 10291315
16:00+7ссз81377100 0.3 10291201
19:00+7ссз8127377 0.4 1030958
22:00+6ссз6127815 0.0 1032632
1 февраля, вт
вт101:00+5ссз478811 0.1 1032245
04:00+7зсз4886100 0.1 1031279
07:00+8зсз81388100 0.3 1029706
10:00+9зсз91490100 0.1 1028740
13:00+10зсз10179297 0.1 1027576
16:00+10зсз10189241 0.0 1026559
19:00+10зсз9189440 0.0 1026527
22:00+10зсз9169692 0.0 1026595